QPF
0.00 0.00 0.00 0.00 0.00 0.00 0.00 0.00 0.00 0.00 0.00 0.00 0.00 0.01 0.02 0.03 0.04 0.03 0.03 0.04 0.05 0.05 0.03 0.01 0.01 0.00 0.01 0.01 0.01 0.02 0.03 0.04 0.06 0.07 0.07 0.06 0.04 0.03 0.03 0.06 0.05 0.02 0.01 0.00
0.00 0.00 0.00 0.00 0.00 0.00 0.00 0.01 0.00 0.00 0.00 0.00 0.01 0.01 0.01 0.01 0.02 0.03 0.04 0.03 0.05 0.05 0.05 0.03 0.01 0.00 0.01 0.01 0.01 0.01 0.01 0.02 0.05 0.09 0.10 0.07 0.04 0.02 0.02 0.03 0.05 0.03 0.01 0.00
0.01 0.00 0.00 0.00 0.00 0.01 0.01 0.02 0.01 0.00 0.00 0.00 0.01 0.01 0.01 0.01 0.01 0.01 0.02 0.02 0.05 0.05 0.05 0.04 0.03 0.03 0.03 0.02 0.01 0.01 0.01 0.01 0.01 0.03 0.07 0.07 0.03 0.02 0.02 0.02 0.03 0.03 0.01 0.01
0.01 0.01 0.00 0.00 0.00 0.01 0.01 0.01 0.01 0.00 0.00 0.01 0.01 0.01 0.00 0.00 0.00 0.01 0.02 0.02 0.03 0.05 0.04 0.05 0.03 0.03 0.04 0.02 0.01 0.01 0.01 0.01 0.01 0.02 0.02 0.03 0.02 0.02 0.02 0.02 0.03 0.03 0.02 0.01
0.01 0.02 0.01 0.00 0.00 0.00 0.00 0.00 0.00 0.01 0.01 0.01 0.01 0.01 0.01 0.01 0.00 0.01 0.03 0.02 0.02 0.02 0.02 0.03 0.03 0.02 0.01 0.02 0.02 0.01 0.02 0.03 0.02 0.02 0.02 0.04 0.03 0.03 0.03 0.03 0.02 0.02 0.02 0.01
0.01 0.01 0.01 0.01 0.00 0.00 0.00 0.00 0.00 0.01 0.02 0.02 0.01 0.01 0.01 0.01 0.00 0.01 0.02 0.02 0.01 0.01 0.01 0.01 0.03 0.02 0.01 0.01 0.02 0.02 0.02 0.03 0.03 0.02 0.03 0.04 0.04 0.05 0.05 0.04 0.03 0.03 0.01 0.01
0.01 0.01 0.01 0.01 0.00 0.00 0.00 0.01 0.02 0.03 0.03 0.01 0.00 0.00 0.00 0.00 0.00 0.01 0.01 0.01 0.02 0.02 0.01 0.01 0.01 0.02 0.02 0.01 0.01 0.01 0.01 0.02 0.02 0.02 0.02 0.03 0.04 0.04 0.04 0.04 0.03 0.03 0.02 0.02
0.01 0.02 0.01 0.00 0.00 0.00 0.00 0.01 0.02 0.02 0.02 0.01 0.01 0.00 0.00 0.00 0.00 0.01 0.01 0.01 0.01 0.01 0.01 0.01 0.00 0.01 0.01 0.01 0.01 0.01 0.01 0.02 0.02 0.02 0.03 0.03 0.03 0.03 0.03 0.03 0.02 0.02 0.01 0.02
0.02 0.01 0.01 0.00 0.00 0.00 0.01 0.01 0.00 0.01 0.01 0.01 0.01 0.00 0.01 0.01 0.01 0.01 0.01 0.01 0.01 0.01 0.01 0.01 0.00 0.00 0.00 0.00 0.01 0.01 0.02 0.02 0.02 0.02 0.03 0.03 0.03 0.03 0.03 0.03 0.02 0.01 0.01 0.01
0.02 0.01 0.01 0.01 0.01 0.01 0.00 0.01 0.02 0.02 0.01 0.01 0.01 0.00 0.01 0.01 0.01 0.02 0.02 0.02 0.01 0.01 0.01 0.01 0.00 0.00 0.00 0.00 0.00 0.00 0.01 0.01 0.02 0.03 0.03 0.02 0.02 0.03 0.03 0.02 0.02 0.01 0.01 0.02
0.02 0.03 0.01 0.02 0.02 0.01 0.01 0.02 0.03 0.02 0.02 0.02 0.02 0.01 0.00 0.01 0.01 0.02 0.02 0.02 0.01 0.01 0.01 0.01 0.00 0.00 0.01 0.01 0.01 0.01 0.01 0.02 0.02 0.04 0.04 0.03 0.03 0.02 0.02 0.02 0.02 0.01 0.01 0.01
0.02 0.04 0.02 0.01 0.01 0.01 0.02 0.02 0.02 0.03 0.02 0.02 0.02 0.02 0.01 0.01 0.01 0.03 0.02 0.02 0.01 0.01 0.01 0.01 0.00 0.00 0.01 0.01 0.02 0.02 0.02 0.02 0.02 0.02 0.03 0.04 0.04 0.02 0.03 0.04 0.02 0.02 0.01 0.01
0.02 0.04 0.03 0.02 0.01 0.02 0.02 0.02 0.02 0.02 0.02 0.02 0.02 0.02 0.01 0.02 0.02 0.02 0.01 0.01 0.01 0.01 0.01 0.01 0.01 0.00 0.01 0.01 0.01 0.02 0.02 0.03 0.02 0.02 0.03 0.03 0.04 0.04 0.04 0.05 0.08 0.04 0.02 0.02
0.01 0.03 0.03 0.04 0.03 0.04 0.04 0.03 0.02 0.03 0.03 0.02 0.02 0.02 0.02 0.03 0.02 0.01 0.01 0.01 0.01 0.01 0.01 0.00 0.00 0.01 0.01 0.01 0.01 0.01 0.01 0.02 0.02 0.03 0.02 0.03 0.03 0.03 0.03 0.02 0.05 0.05 0.03 0.02
0.01 0.02 0.02 0.02 0.03 0.03 0.03 0.03 0.02 0.02 0.02 0.02 0.02 0.01 0.02 0.03 0.02 0.01 0.01 0.01 0.01 0.01 0.01 0.00 0.00 0.00 0.00 0.01 0.01 0.01 0.01 0.01 0.01 0.02 0.03 0.03 0.03 0.03 0.02 0.02 0.02 0.03 0.04 0.03
0.00 0.01 0.01 0.01 0.01 0.02 0.02 0.02 0.02 0.02 0.02 0.01 0.01 0.01 0.02 0.02 0.02 0.01 0.01 0.01 0.01 0.00 0.00 0.00 0.00 0.00 0.00 0.01 0.01 0.01 0.01 0.01 0.01 0.01 0.03 0.04 0.03 0.02 0.02 0.02 0.02 0.01 0.02 0.02
0.01 0.01 0.01 0.00 0.00 0.01 0.03 0.03 0.03 0.02 0.01 0.01 0.01 0.01 0.02 0.02 0.01 0.01 0.01 0.01 0.01 0.01 0.00 0.00 0.00 0.00 0.00 0.01 0.02 0.02 0.02 0.01 0.02 0.02 0.01 0.02 0.02 0.02 0.02 0.02 0.02 0.01 0.01 0.01
0.00 0.01 0.01 0.01 0.01 0.02 0.03 0.02 0.02 0.01 0.02 0.01 0.01 0.01 0.02 0.01 0.01 0.01 0.01 0.01 0.01 0.01 0.01 0.01 0.00 0.00 0.00 0.00 0.01 0.02 0.02 0.01 0.01 0.01 0.01 0.01 0.01 0.01 0.02 0.01 0.02 0.02 0.01 0.02
0.00 0.00 0.01 0.01 0.02 0.02 0.02 0.02 0.02 0.01 0.02 0.02 0.01 0.01 0.02 0.01 0.01 0.02 0.02 0.01 0.01 0.00 0.01 0.01 0.01 0.00 0.00 0.00 0.00 0.01 0.01 0.02 0.01 0.01 0.01 0.01 0.02 0.01 0.02 0.01 0.01 0.02 0.02 0.02
0.01 0.00 0.00 0.01 0.01 0.02 0.03 0.02 0.01 0.01 0.02 0.02 0.01 0.02 0.02 0.01 0.01 0.02 0.03 0.02 0.01 0.01 0.00 0.01 0.01 0.00 0.00 0.00 0.00 0.00 0.00 0.01 0.01 0.01 0.01 0.01 0.01 0.02 0.02 0.03 0.02 0.02 0.02 0.02
0.00 0.01 0.01 0.01 0.01 0.01 0.01 0.01 0.01 0.01 0.02 0.02 0.01 0.02 0.02 0.02 0.01 0.01 0.02 0.02 0.02 0.01 0.01 0.01 0.01 0.01 0.01 0.00 0.00 0.00 0.01 0.01 0.01 0.01 0.02 0.02 0.01 0.01 0.02 0.04 0.04 0.04 0.04 0.03
0.01 0.01 0.01 0.01 0.01 0.01 0.01 0.00 0.01 0.01 0.01 0.01 0.01 0.02 0.02 0.02 0.01 0.01 0.01 0.01 0.02 0.02 0.01 0.01 0.00 0.01 0.00 0.00 0.01 0.01 0.01 0.02 0.02 0.02 0.02 0.03 0.03 0.04 0.04 0.03 0.03 0.03 0.03 0.03
0.01 0.01 0.01 0.01 0.01 0.01 0.00 0.00 0.01 0.01 0.01 0.01 0.01 0.02 0.02 0.01 0.01 0.01 0.01 0.01 0.01 0.01 0.01 0.01 0.01 0.01 0.01 0.01 0.01 0.02 0.02 0.02 0.02 0.01 0.01 0.02 0.02 0.02 0.02 0.03 0.02 0.02 0.02 0.02
0.01 0.01 0.01 0.01 0.01 0.00 0.00 0.00 0.00 0.01 0.01 0.01 0.01 0.02 0.03 0.02 0.02 0.01 0.01 0.01 0.00 0.00 0.01 0.01 0.01 0.01 0.01 0.01 0.01 0.01 0.01 0.01 0.01 0.01 0.01 0.02 0.02 0.02 0.01 0.02 0.02 0.02 0.02 0.01
0.01 0.00 0.01 0.01 0.00 0.00 0.00 0.00 0.00 0.00 0.00 0.01 0.01 0.01 0.01 0.02 0.02 0.01 0.01 0.00 0.00 0.00 0.00 0.00 0.01 0.01 0.01 0.01 0.00 0.00 0.00 0.00 0.01 0.01 0.01 0.01 0.02 0.02 0.02 0.02 0.02 0.02 0.01 0.02
0.01 0.00 0.01 0.01 0.00 0.00 0.00 0.00 0.00 0.00 0.00 0.00 0.00 0.00 0.00 0.00 0.00 0.00 0.00 0.01 0.01 0.00 0.00 0.00 0.00 0.00 0.00 0.01 0.00 0.00 0.00 0.00 0.01 0.01 0.01 0.01 0.01 0.01 0.02 0.02 0.02 0.02 0.03 0.03
MSLP
1009.99 1010.66 1011.30 1011.88 1012.38 1012.78 1013.10 1013.36 1013.59 1013.80 1014.03 1014.28 1014.54 1014.79 1015.04 1015.25 1015.41 1015.52 1015.58 1015.59 1015.58 1015.57 1015.56 1015.58 1015.63 1015.71 1015.81 1015.92 1016.03 1016.11 1016.17 1016.20 1016.21 1016.21 1016.20 1016.20 1016.22 1016.24 1016.26 1016.28 1016.28 1016.24 1016.17 1016.05
1010.93 1011.53 1012.08 1012.56 1012.95 1013.26 1013.49 1013.67 1013.83 1013.97 1014.12 1014.27 1014.43 1014.59 1014.75 1014.89 1015.01 1015.11 1015.20 1015.27 1015.34 1015.40 1015.47 1015.53 1015.61 1015.68 1015.76 1015.84 1015.92 1016.00 1016.07 1016.13 1016.19 1016.23 1016.26 1016.27 1016.27 1016.25 1016.20 1016.15 1016.08 1016.00 1015.92 1015.83
1011.80 1012.32 1012.79 1013.17 1013.48 1013.71 1013.88 1014.01 1014.10 1014.17 1014.22 1014.26 1014.29 1014.31 1014.33 1014.37 1014.42 1014.51 1014.62 1014.76 1014.92 1015.09 1015.26 1015.41 1015.53 1015.63 1015.70 1015.76 1015.82 1015.88 1015.95 1016.04 1016.13 1016.21 1016.27 1016.29 1016.26 1016.19 1016.08 1015.95 1015.82 1015.69 1015.59 1015.53
1012.55 1012.99 1013.38 1013.70 1013.95 1014.15 1014.29 1014.39 1014.45 1014.45 1014.41 1014.31 1014.18 1014.03 1013.88 1013.77 1013.73 1013.76 1013.88 1014.09 1014.36 1014.65 1014.94 1015.20 1015.40 1015.54 1015.63 1015.67 1015.71 1015.75 1015.82 1015.91 1016.02 1016.12 1016.19 1016.22 1016.18 1016.07 1015.91 1015.72 1015.52 1015.36 1015.24 1015.19
1013.14 1013.51 1013.84 1014.12 1014.36 1014.56 1014.73 1014.84 1014.88 1014.85 1014.71 1014.49 1014.19 1013.84 1013.50 1013.22 1013.03 1012.99 1013.11 1013.36 1013.72 1014.14 1014.56 1014.94 1015.23 1015.43 1015.54 1015.59 1015.60 1015.62 1015.66 1015.74 1015.84 1015.95 1016.03 1016.05 1016.00 1015.87 1015.68 1015.44 1015.21 1015.01 1014.88 1014.83
1013.57 1013.89 1014.18 1014.45 1014.70 1014.95 1015.16 1015.32 1015.39 1015.34 1015.15 1014.81 1014.35 1013.82 1013.27 1012.80 1012.47 1012.33 1012.40 1012.68 1013.11 1013.63 1014.18 1014.67 1015.05 1015.31 1015.45 1015.49 1015.47 1015.45 1015.45 1015.50 1015.58 1015.67 1015.75 1015.77 1015.72 1015.59 1015.38 1015.13 1014.88 1014.66 1014.52 1014.47
1013.86 1014.13 1014.39 1014.67 1014.96 1015.27 1015.56 1015.79 1015.92 1015.89 1015.67 1015.25 1014.67 1013.97 1013.25 1012.60 1012.11 1011.87 1011.88 1012.15 1012.61 1013.21 1013.84 1014.41 1014.87 1015.18 1015.33 1015.36 1015.31 1015.24 1015.19 1015.18 1015.22 1015.29 1015.35 1015.37 1015.33 1015.20 1015.00 1014.76 1014.51 1014.29 1014.14 1014.08
1014.04 1014.26 1014.51 1014.80 1015.13 1015.50 1015.88 1016.20 1016.40 1016.41 1016.19 1015.74 1015.07 1014.26 1013.40 1012.62 1012.01 1011.65 1011.59 1011.82 1012.29 1012.91 1013.58 1014.20 1014.70 1015.03 1015.18 1015.18 1015.09 1014.96 1014.84 1014.78 1014.76 1014.79 1014.83 1014.85 1014.82 1014.71 1014.53 1014.31 1014.08 1013.87 1013.72 1013.65
1014.16 1014.34 1014.57 1014.85 1015.21 1015.63 1016.07 1016.46 1016.73 1016.80 1016.61 1016.16 1015.47 1014.61 1013.68 1012.81 1012.11 1011.67 1011.53 1011.71 1012.14 1012.74 1013.41 1014.03 1014.52 1014.83 1014.96 1014.93 1014.79 1014.60 1014.42 1014.29 1014.22 1014.20 1014.22 1014.22 1014.19 1014.10 1013.95 1013.76 1013.55 1013.36 1013.22 1013.14
1014.26 1014.40 1014.60 1014.86 1015.22 1015.64 1016.10 1016.53 1016.84 1016.96 1016.82 1016.41 1015.74 1014.89 1013.96 1013.06 1012.32 1011.83 1011.64 1011.75 1012.12 1012.67 1013.28 1013.85 1014.31 1014.59 1014.67 1014.60 1014.41 1014.17 1013.93 1013.73 1013.61 1013.54 1013.52 1013.50 1013.47 1013.39 1013.27 1013.10 1012.92 1012.75 1012.62 1012.54
1014.37 1014.48 1014.63 1014.85 1015.15 1015.54 1015.96 1016.37 1016.68 1016.81 1016.71 1016.35 1015.76 1014.97 1014.09 1013.24 1012.52 1012.02 1011.80 1011.86 1012.16 1012.62 1013.15 1013.65 1014.03 1014.25 1014.30 1014.18 1013.95 1013.66 1013.38 1013.13 1012.95 1012.84 1012.77 1012.72 1012.67 1012.59 1012.47 1012.33 1012.17 1012.02 1011.90 1011.81
1014.51 1014.59 1014.69 1014.83 1015.05 1015.33 1015.66 1015.98 1016.23 1016.34 1016.26 1015.95 1015.43 1014.75 1013.98 1013.22 1012.58 1012.12 1011.90 1011.93 1012.16 1012.54 1012.98 1013.38 1013.69 1013.84 1013.84 1013.69 1013.43 1013.12 1012.80 1012.52 1012.29 1012.13 1012.01 1011.91 1011.83 1011.72 1011.60 1011.46 1011.31 1011.18 1011.07 1010.99
1014.65 1014.71 1014.75 1014.81 1014.90 1015.04 1015.22 1015.40 1015.54 1015.58 1015.47 1015.19 1014.76 1014.19 1013.56 1012.94 1012.41 1012.04 1011.86 1011.88 1012.07 1012.38 1012.73 1013.05 1013.28 1013.38 1013.33 1013.16 1012.89 1012.57 1012.24 1011.93 1011.66 1011.44 1011.26 1011.11 1010.97 1010.82 1010.67 1010.52 1010.38 1010.25 1010.15 1010.08
1014.77 1014.81 1014.80 1014.76 1014.71 1014.68 1014.68 1014.67 1014.65 1014.57 1014.41 1014.14 1013.78 1013.33 1012.85 1012.39 1012.01 1011.76 1011.66 1011.71 1011.88 1012.14 1012.42 1012.67 1012.83 1012.89 1012.82 1012.64 1012.37 1012.05 1011.71 1011.38 1011.07 1010.80 1010.55 1010.33 1010.13 1009.93 1009.74 1009.57 1009.41 1009.29 1009.20 1009.14
1014.80 1014.83 1014.78 1014.64 1014.46 1014.26 1014.05 1013.85 1013.65 1013.43 1013.19 1012.91 1012.59 1012.26 1011.93 1011.64 1011.43 1011.31 1011.31 1011.42 1011.61 1011.84 1012.08 1012.28 1012.40 1012.42 1012.33 1012.15 1011.89 1011.57 1011.23 1010.88 1010.54 1010.21 1009.90 1009.60 1009.32 1009.06 1008.82 1008.62 1008.45 1008.32 1008.24 1008.19
1014.68 1014.71 1014.62 1014.41 1014.11 1013.76 1013.37 1012.99 1012.61 1012.26 1011.92 1011.62 1011.34 1011.10 1010.91 1010.79 1010.75 1010.78 1010.90 1011.08 1011.31 1011.55 1011.76 1011.92 1012.01 1012.00 1011.90 1011.71 1011.46 1011.14 1010.79 1010.42 1010.04 1009.65 1009.27 1008.91 1008.55 1008.23 1007.95 1007.71 1007.52 1007.39 1007.30 1007.25
1014.37 1014.39 1014.27 1014.01 1013.63 1013.17 1012.65 1012.12 1011.61 1011.14 1010.74 1010.41 1010.17 1010.02 1009.95 1009.99 1010.10 1010.28 1010.52 1010.78 1011.06 1011.31 1011.51 1011.64 1011.69 1011.66 1011.53 1011.33 1011.06 1010.74 1010.37 1009.97 1009.55 1009.11 1008.67 1008.24 1007.82 1007.45 1007.12 1006.85 1006.64 1006.49 1006.39 1006.32
1013.84 1013.84 1013.71 1013.42 1013.01 1012.49 1011.90 1011.29 1010.69 1010.16 1009.72 1009.40 1009.20 1009.13 1009.18 1009.35 1009.59 1009.91 1010.25 1010.59 1010.90 1011.16 1011.35 1011.44 1011.45 1011.37 1011.21 1010.97 1010.67 1010.32 1009.92 1009.49 1009.02 1008.54 1008.05 1007.57 1007.11 1006.69 1006.32 1006.02 1005.79 1005.61 1005.48 1005.38
1013.12 1013.09 1012.94 1012.66 1012.24 1011.72 1011.13 1010.50 1009.90 1009.37 1008.94 1008.65 1008.51 1008.52 1008.67 1008.95 1009.31 1009.72 1010.14 1010.53 1010.87 1011.12 1011.27 1011.31 1011.26 1011.11 1010.88 1010.59 1010.23 1009.84 1009.40 1008.93 1008.43 1007.91 1007.39 1006.87 1006.38 1005.92 1005.52 1005.19 1004.91 1004.70 1004.52 1004.37
1012.28 1012.20 1012.04 1011.76 1011.39 1010.91 1010.37 1009.80 1009.25 1008.77 1008.40 1008.18 1008.11 1008.20 1008.44 1008.80 1009.25 1009.72 1010.19 1010.60 1010.93 1011.14 1011.24 1011.21 1011.07 1010.83 1010.52 1010.14 1009.72 1009.27 1008.79 1008.28 1007.76 1007.22 1006.67 1006.13 1005.61 1005.13 1004.69 1004.31 1003.98 1003.69 1003.44 1003.21
1011.43 1011.29 1011.10 1010.84 1010.52 1010.12 1009.67 1009.20 1008.75 1008.37 1008.10 1007.96 1007.98 1008.15 1008.46 1008.88 1009.38 1009.88 1010.36 1010.75 1011.04 1011.19 1011.20 1011.08 1010.83 1010.49 1010.08 1009.62 1009.12 1008.61 1008.09 1007.55 1007.01 1006.46 1005.90 1005.35 1004.80 1004.28 1003.79 1003.34 1002.93 1002.55 1002.20 1001.87
1010.71 1010.48 1010.26 1010.01 1009.73 1009.42 1009.08 1008.73 1008.41 1008.15 1007.99 1007.95 1008.05 1008.29 1008.65 1009.11 1009.62 1010.12 1010.57 1010.92 1011.14 1011.21 1011.12 1010.88 1010.52 1010.07 1009.56 1009.01 1008.44 1007.88 1007.32 1006.77 1006.22 1005.67 1005.10 1004.53 1003.96 1003.39 1002.82 1002.27 1001.75 1001.25 1000.78 1000.33
1010.22 1009.90 1009.62 1009.37 1009.14 1008.90 1008.66 1008.43 1008.23 1008.08 1008.03 1008.08 1008.25 1008.54 1008.94 1009.40 1009.90 1010.37 1010.77 1011.05 1011.18 1011.15 1010.95 1010.60 1010.13 1009.58 1008.97 1008.35 1007.73 1007.13 1006.55 1005.99 1005.44 1004.89 1004.32 1003.72 1003.10 1002.45 1001.79 1001.11 1000.45 999.80 999.18 998.60
1010.02 1009.61 1009.28 1009.01 1008.79 1008.60 1008.44 1008.30 1008.20 1008.16 1008.18 1008.30 1008.52 1008.84 1009.23 1009.68 1010.14 1010.55 1010.88 1011.08 1011.12 1010.99 1010.69 1010.24 1009.68 1009.04 1008.36 1007.68 1007.03 1006.41 1005.83 1005.28 1004.73 1004.18 1003.59 1002.95 1002.26 1001.52 1000.72 999.90 999.06 998.25 997.47 996.77
1010.14 1009.65 1009.26 1008.96 1008.73 1008.57 1008.45 1008.37 1008.33 1008.34 1008.42 1008.57 1008.80 1009.12 1009.49 1009.90 1010.29 1010.64 1010.89 1011.00 1010.95 1010.74 1010.35 1009.83 1009.19 1008.50 1007.78 1007.07 1006.41 1005.79 1005.22 1004.68 1004.14 1003.58 1002.96 1002.27 1001.49 1000.62 999.67 998.68 997.67 996.68 995.76 994.93
1010.51 1009.95 1009.51 1009.18 1008.93 1008.77 1008.66 1008.60 1008.59 1008.62 1008.71 1008.86 1009.07 1009.35 1009.68 1010.03 1010.35 1010.63 1010.79 1010.83 1010.71 1010.43 1009.98 1009.41 1008.74 1008.02 1007.28 1006.58 1005.92 1005.32 1004.76 1004.23 1003.70 1003.11 1002.45 1001.68 1000.80 999.80 998.70 997.53 996.35 995.20 994.15 993.23
Thickness
5742 5729 5722 5727 5733 5732 5730 5725 5722 5728 5738 5732 5727 5726 5729 5736 5735 5734 5734 5734 5734 5737 5740 5742 5741 5738 5737 5735 5732 5730 5727 5725 5722 5718 5716 5712 5710 5711 5711 5710 5710 5709 5708 5707
5728 5722 5731 5737 5736 5733 5728 5720 5720 5726 5736 5730 5724 5725 5732 5735 5735 5735 5734 5734 5733 5734 5736 5736 5736 5734 5732 5730 5728 5727 5724 5721 5718 5715 5713 5710 5708 5707 5707 5706 5705 5704 5704 5703
5720 5726 5736 5731 5727 5723 5722 5717 5717 5718 5727 5730 5722 5716 5726 5732 5737 5736 5735 5735 5735 5733 5733 5732 5731 5730 5729 5727 5725 5724 5721 5718 5715 5713 5710 5707 5704 5702 5700 5700 5700 5700 5699 5698
5723 5731 5729 5723 5721 5720 5713 5725 5722 5719 5712 5709 5716 5698 5719 5728 5728 5729 5729 5731 5731 5733 5732 5731 5729 5727 5725 5724 5724 5722 5719 5716 5713 5710 5705 5701 5697 5694 5695 5696 5696 5696 5695 5693
5717 5724 5721 5716 5720 5722 5719 5727 5723 5718 5711 5707 5715 5704 5713 5726 5718 5722 5727 5729 5730 5731 5731 5729 5727 5725 5724 5723 5721 5719 5716 5713 5710 5707 5703 5698 5695 5693 5693 5692 5691 5690 5689 5688
5720 5729 5726 5722 5727 5728 5726 5722 5720 5717 5707 5693 5712 5705 5703 5717 5721 5723 5727 5728 5729 5729 5728 5727 5725 5723 5721 5719 5717 5714 5711 5708 5706 5703 5699 5695 5692 5689 5687 5685 5684 5683 5683 5682
5709 5717 5724 5725 5716 5721 5719 5703 5689 5685 5684 5693 5719 5710 5706 5723 5730 5729 5726 5726 5727 5726 5723 5721 5718 5716 5714 5713 5711 5710 5706 5703 5701 5699 5696 5693 5690 5687 5683 5681 5679 5677 5676 5675
5698 5698 5714 5718 5712 5708 5712 5705 5684 5675 5683 5697 5711 5704 5711 5729 5731 5731 5729 5726 5724 5721 5718 5716 5713 5711 5709 5708 5706 5704 5701 5699 5697 5695 5692 5690 5687 5684 5681 5679 5677 5674 5673 5672
5698 5698 5717 5719 5718 5714 5705 5704 5710 5695 5695 5690 5701 5708 5713 5724 5723 5723 5722 5720 5718 5715 5713 5711 5709 5707 5705 5703 5701 5700 5697 5695 5693 5691 5689 5686 5684 5681 5678 5676 5675 5672 5671 5670
5702 5693 5706 5713 5713 5713 5711 5708 5699 5688 5677 5676 5693 5701 5702 5707 5710 5713 5713 5712 5712 5711 5709 5707 5704 5702 5700 5699 5698 5697 5694 5691 5688 5686 5684 5682 5679 5677 5675 5673 5670 5668 5667 5666
5702 5690 5696 5702 5697 5698 5702 5700 5697 5691 5688 5676 5675 5689 5717 5712 5713 5710 5709 5708 5707 5705 5703 5702 5699 5698 5696 5695 5693 5692 5690 5687 5684 5681 5679 5677 5674 5673 5671 5668 5666 5664 5662 5661
5697 5689 5685 5696 5708 5709 5703 5700 5695 5678 5678 5685 5680 5686 5719 5716 5716 5711 5707 5705 5704 5701 5699 5697 5695 5693 5690 5688 5687 5686 5685 5682 5679 5677 5674 5671 5669 5667 5664 5662 5661 5660 5658 5657
5689 5682 5674 5679 5686 5694 5693 5696 5696 5690 5681 5676 5674 5682 5711 5710 5708 5706 5703 5701 5698 5695 5693 5691 5688 5686 5684 5682 5681 5680 5678 5676 5674 5672 5668 5665 5662 5660 5658 5656 5655 5653 5652 5651
5685 5677 5673 5668 5677 5684 5684 5688 5691 5685 5672 5672 5680 5684 5694 5697 5697 5697 5696 5695 5694 5691 5688 5685 5682 5680 5678 5677 5675 5674 5672 5670 5668 5665 5661 5658 5656 5654 5652 5650 5648 5646 5646 5644
5682 5672 5677 5681 5686 5687 5684 5685 5687 5683 5682 5674 5682 5684 5689 5692 5692 5692 5692 5689 5687 5685 5682 5679 5676 5674 5672 5670 5669 5668 5666 5665 5663 5659 5655 5652 5651 5648 5646 5644 5642 5640 5639 5638
5677 5670 5672 5674 5683 5684 5680 5684 5684 5683 5683 5681 5681 5682 5693 5693 5692 5688 5685 5682 5680 5678 5677 5675 5672 5670 5667 5665 5663 5662 5659 5658 5656 5653 5649 5647 5644 5642 5639 5637 5636 5633 5632 5631
5671 5666 5661 5663 5676 5675 5670 5683 5683 5682 5684 5681 5674 5680 5686 5682 5681 5679 5677 5675 5673 5672 5672 5670 5667 5665 5662 5660 5658 5655 5654 5652 5649 5646 5643 5640 5637 5635 5632 5631 5628 5626 5625 5624
5667 5663 5659 5658 5661 5649 5675 5693 5690 5682 5682 5683 5681 5680 5679 5677 5677 5677 5675 5671 5667 5666 5665 5664 5662 5659 5658 5656 5653 5650 5648 5645 5642 5639 5635 5633 5630 5627 5625 5623 5620 5619 5618 5616
5670 5660 5652 5651 5648 5659 5674 5683 5682 5674 5672 5679 5676 5675 5674 5673 5669 5666 5668 5667 5663 5661 5659 5657 5656 5654 5652 5650 5647 5644 5640 5638 5635 5631 5628 5626 5624 5621 5618 5615 5613 5612 5610 5608
5663 5659 5647 5645 5639 5643 5665 5678 5682 5671 5658 5673 5673 5668 5666 5662 5649 5651 5660 5659 5656 5654 5652 5650 5649 5647 5644 5643 5641 5636 5633 5630 5627 5624 5622 5619 5617 5614 5611 5609 5607 5605 5603 5601
5644 5643 5638 5636 5636 5652 5667 5673 5670 5647 5652 5668 5667 5664 5661 5653 5650 5652 5654 5651 5649 5646 5645 5643 5641 5638 5636 5635 5633 5628 5625 5622 5621 5618 5615 5612 5610 5607 5605 5602 5600 5598 5596 5593
5642 5637 5636 5635 5630 5641 5662 5662 5654 5654 5663 5663 5660 5658 5654 5651 5649 5647 5645 5642 5640 5638 5636 5634 5632 5629 5629 5628 5624 5620 5617 5616 5614 5611 5607 5604 5602 5601 5599 5595 5592 5590 5587 5585
5646 5646 5643 5643 5643 5655 5659 5659 5660 5660 5656 5655 5652 5650 5648 5643 5640 5638 5636 5634 5633 5631 5628 5626 5623 5621 5620 5619 5616 5612 5610 5609 5606 5603 5599 5597 5595 5593 5591 5587 5584 5582 5579 5577
5648 5652 5644 5642 5647 5652 5653 5654 5654 5653 5650 5649 5646 5643 5640 5635 5632 5630 5628 5627 5625 5623 5620 5617 5615 5612 5611 5610 5609 5606 5604 5602 5598 5595 5591 5589 5587 5584 5582 5580 5577 5574 5571 5569
5640 5641 5637 5636 5641 5643 5644 5645 5645 5644 5643 5640 5638 5635 5632 5629 5626 5623 5621 5620 5618 5616 5612 5610 5606 5604 5603 5602 5600 5599 5597 5594 5590 5587 5584 5581 5578 5575 5573 5571 5569 5567 5565 5562
5635 5633 5626 5628 5637 5634 5635 5638 5639 5635 5632 5631 5629 5626 5625 5622 5619 5616 5614 5613 5610 5607 5604 5601 5598 5596 5595 5594 5592 5590 5589 5586 5582 5578 5576 5572 5569 5566 5564 5561 5559 5558 5557 5556